• Join FlightAware (Why Join?)
  • Login
  • US Flag 
01:40AM EST


 

Airport Tracker/Info


-or-


 

Live Flight TrackerFlight Track Log ✈ CFS800 ✈ 20-May-2013 ✈ KPDT - KGEG

Flight Track Log - Related Links

Times and Time Zones

All times are in EDT time to prevent confusion due to time zone crossing. See the CFS800 flight status page for this flight to view local times or setup timezone preferences in your user account.

Time Position Orientation Groundspeed Altitude Reporting Facility
EDT Latitude Longitude Course Direction KTS MPH feet Rate Location/Type
08:02PM 45.7300 -118.8186 23° Northeast 101 116 3,100  Level Seattle Center
08:03PM 45.9207 -118.6904 21° North  Level FlightAware Approximate
08:03PM 45.7581 -118.7969 28° Northeast 111 128 4,000  Level Seattle Center
08:04PM 45.9574 -118.6593 35° Northeast  Level FlightAware Approximate
08:04PM 45.7886 -118.7778 24° Northeast 117 135 4,800  Level Seattle Center
08:05PM 45.9947 -118.6333 North  Level FlightAware Approximate
08:05PM 45.8172 -118.7597 24° Northeast 115 132 5,700  Level Seattle Center
08:06PM 46.0239 -118.6018 23° Northeast  Level FlightAware Approximate
08:06PM 45.8494 -118.7383 25° Northeast 125 144 6,400  Level Seattle Center
08:07PM 46.0633 -118.5772 23° Northeast  Level FlightAware Approximate
08:07PM 45.8908 -118.7142 22° Northeast 133 153 7,300  Level Seattle Center
08:08PM 45.9253 -118.6883 28° Northeast 139 160 8,200 780 Climbing Seattle Center
08:09PM 45.9617 -118.6653 24° Northeast 142 163 9,000 540 Climbing Seattle Center
08:10PM 45.9972 -118.6422 24° Northeast 141 162 9,400 180 Climbing Seattle Center
08:11PM 46.0406 -118.6111 26° Northeast 171 197 9,400  Level Seattle Center
08:12PM 46.0853 -118.5797 26° Northeast 178 205 9,400  Level Seattle Center
08:13PM 46.1333 -118.5508 23° Northeast 185 213 9,400  Level Seattle Center
08:14PM 46.1797 -118.5197 25° Northeast 185 213 9,400  Level Seattle Center
08:15PM 46.2256 -118.4889 25° Northeast 188 216 9,500  Climbing Seattle Center
08:16PM 46.2719 -118.4567 26° Northeast 187 215 9,500 -60 Level Seattle Center
08:17PM 46.3306 -118.4200 23° Northeast 190 219 9,400 -60 Descending Seattle Center
08:18PM 46.3772 -118.3864 26° Northeast 190 219 9,400  Level Seattle Center
08:19PM 46.4236 -118.3561 24° Northeast 186 214 9,400  Level Seattle Center
08:20PM 46.4714 -118.3217 26° Northeast 190 219 9,400 -60 Level Seattle Center
08:21PM 46.5206 -118.2908 23° Northeast 193 222 9,300 -60 Descending Seattle Center
08:22PM 46.5675 -118.2608 24° Northeast 187 215 9,300 -60 Level Seattle Center
08:23PM 46.6150 -118.2281 25° Northeast 190 219 9,200  Descending Seattle Center
08:24PM 46.6614 -118.1969 25° Northeast 187 215 9,300  Climbing Seattle Center
08:25PM 46.7083 -118.1650 25° Northeast 186 214 9,200 -60 Descending Seattle Center
08:26PM 46.7547 -118.1325 26° Northeast 186 214 9,200  Level Seattle Center
08:27PM 46.8017 -118.1006 25° Northeast 187 215 9,300 60 Climbing Seattle Center
08:28PM 46.8475 -118.0694 25° Northeast 183 211 9,400  Climbing Seattle Center
08:29PM 46.9039 -118.0336 23° Northeast 179 206 9,400  Level Seattle Center
08:30PM 46.9478 -118.0028 26° Northeast 180 207 9,400 -60 Level Seattle Center
08:31PM 46.9928 -117.9714 25° Northeast 178 205 9,300 -60 Descending Seattle Center
08:32PM 47.0394 -117.9386 26° Northeast 184 212 9,300  Level Seattle Center
08:33PM 47.0853 -117.9069 25° Northeast 184 212 9,400 -180 Climbing Seattle Center
08:34PM 47.1342 -117.8753 24° Northeast 193 222 9,000 -420 Descending Seattle Center
08:35PM 47.1753 -117.8269 39° Northeast 191 220 8,600 -360 Descending Seattle Center
08:36PM 47.2147 -117.7783 40° Northeast 185 213 8,300 -360 Descending Seattle Center
08:37PM 47.2528 -117.7300 41° Northeast 182 209 7,900 -420 Descending Seattle Center
08:38PM 47.2903 -117.6797 42° Northeast 182 209 7,500 -360 Descending Seattle Center
08:39PM 47.3272 -117.6308 42° Northeast 180 207 7,200 -300 Descending Seattle Center
08:40PM 47.3744 -117.6089 17° North 181 208 6,900 -420 Descending Seattle Center
08:41PM 47.4358 -117.5911 11° North 186 214 6,400 -660 Descending Seattle Center
08:42PM 47.4872 -117.5742 13° North 189 217 5,600 -900 Descending Seattle Center
08:43PM 47.5375 -117.5581 12° North 187 215 4,600 -1,020 Descending Seattle Center
08:44PM 47.5886 -117.5419 12° North 186 214 3,600 -840 Descending Seattle Center
08:45PM 47.6117 -117.5044 48° Northeast 130 150 3,000 -660 Descending Seattle Center
08:46PM 47.6169 -117.5444 281° West 98 113 2,300 -360 Descending Seattle Center
08:47PM 47.6228 -117.5356 46° Northeast 36 41 2,300  Level Seattle Center